User: anonymous   Login
Location: Chuathbaluk
(61.5726°N, 159.2454°W)
Time: 23:54:59
(UTC+00:00)
Language:

QB50P2 - Orbit

View from above orbital plane
View from above orbital plane
View from above satellite
View from above satellite

Ground track
Ground track

The orbit data is extracted from the following two-line orbital elements,

1 40032U 14033Y   21023.35606917  .00000280  00000-0  35966-4 0  9998
2 40032  97.9124 310.6982 0010565 296.8173  63.1963 14.88827032357708
Epoch (UTC): 23 January 2021 08:32:44
Eccentricity: 0.0010565
inclination: 97.9124°
perigee height: 594 km
apogee height: 609 km
right ascension of ascending node: 310.6982°
argument of perigee: 296.8173°
revolutions per day: 14.88827032
mean anomaly at epoch: 63.1963°
orbit number at epoch: 35770

The dashed part of the orbit path shows where the satellite is in the earth's shadow,  

DLR